sat.trackr.live / text

‹ back to catalog

STARLINK-34937

NORAD 66192 · 2025-243R

PAYLOAD ACTIVE UNKNOWN

§ Identity

Operator
Country
US
Launch date
2025-10-26
Launch site
AFETR
Launch vehicle
Mass (kg)
RCS (m²)

Purposes: comms

External: N2YO · Heavens-Above · Gunter

§ Orbital elements

Epoch: 2026-05-25T00:09:09.484128Z

Period
94.11 min
Inclination
53.1577°
Eccentricity
0.0001243
Mean motion
15.30204412 rev/d
Perigee alt
474.4 km
Apogee alt
476.1 km
Semi-major
6,853.3 km
B*
7.3272e-4
RAAN
251.0960°
Arg perigee
91.1513°
Mean anomaly
268.9630°
Rev number
3,233

§ Raw data

STARLINK-349371 66192U 25243R   26145.00635977  .00021407  00000+0  73272-3 0  99922 66192  53.1577 251.0960 0001243  91.1513 268.9630 15.30204412 32334

JSON: /api/v1/satellites/66192 · /tle

For live sub-satellite position, see the globe view (requires WebGL).

§ Visibility from observer

Set your observer location to see the next 7 days of passes ≥ 10°. The values pass through the URL so the page stays shareable.

No JS? Fill the form by hand. The geolocation button needs JavaScript.